Wind_Speed
23 24 24 24 25 25 25 25 24 24 24 25 25 25 25 25 24 24 23 23 23 22 21 21 20 19 18 18 17 15 15 14 13 14 15 15 15 14 13 13 12 12 12 12 12 11 10 10 9 8 8 7 7 6 6 6 6 6 6 6 6 6 6 6 6 5 7 9 10 10 12 14 14 16 18 18 19 21 22 24 26 27 27 27 27
22 23 24 25 26 25 25 25 25 25 25 26 26 26 26 26 25 25 25 24 24 23 21 22 21 20 20 19 18 16 15 15 13 13 14 15 15 15 15 14 14 14 13 13 13 12 12 11 11 10 10 9 9 9 9 8 8 8 8 8 8 8 8 8 8 8 8 10 11 11 12 14 15 16 18 20 21 23 24 24 25 26 26 26 26
21 22 23 25 26 26 26 26 25 25 26 26 26 26 27 27 26 26 26 24 24 23 21 22 22 21 20 20 19 18 16 15 14 13 13 14 15 16 16 16 16 15 15 14 14 14 14 14 13 13 13 12 11 11 11 11 11 11 10 10 10 10 11 10 10 10 10 10 11 12 13 15 16 17 19 21 22 23 23 23 23 23 24 25 24
20 21 22 24 25 26 27 27 26 27 27 26 26 26 27 27 27 27 27 25 25 24 22 22 23 22 21 21 21 19 17 16 15 14 13 14 14 15 16 17 17 17 17 17 17 17 16 15 15 15 15 14 14 14 13 13 14 14 14 13 13 13 13 13 13 13 12 11 12 14 15 16 17 18 20 21 22 22 21 21 21 21 21 21 22
21 20 21 23 24 25 26 28 28 28 27 26 26 26 26 27 27 27 27 27 25 24 23 23 23 22 21 21 21 20 19 17 16 16 15 15 15 15 16 16 17 18 18 19 19 19 19 18 17 18 17 17 16 16 16 16 16 16 16 16 16 16 15 15 15 16 15 14 14 15 16 17 18 19 21 21 21 20 20 20 20 19 18 19 22
22 20 21 22 23 24 26 27 28 28 28 27 26 26 26 27 28 27 27 27 26 24 24 23 23 22 21 21 20 20 20 19 18 17 17 16 16 16 16 16 16 17 18 19 20 20 20 20 20 20 19 19 18 18 18 18 18 18 18 18 19 18 17 16 16 16 16 16 16 16 17 18 18 18 19 19 20 20 20 20 19 19 20 22 25
23 22 21 22 22 23 25 26 27 28 28 28 27 26 26 26 27 27 27 27 27 26 24 23 23 21 20 20 20 20 20 19 18 18 18 16 16 16 16 15 15 16 17 18 19 20 21 21 21 21 20 20 19 19 20 20 20 20 19 20 20 19 19 18 17 17 16 16 17 17 17 17 17 18 18 19 20 20 19 19 20 23 26 28 28
26 23 22 22 22 22 23 25 27 27 28 29 28 27 27 26 25 26 26 27 27 27 25 23 23 21 20 20 21 20 20 20 19 19 18 17 16 15 15 15 14 14 15 16 17 18 19 20 20 20 20 20 19 20 20 21 20 20 20 20 20 20 19 19 18 18 18 18 18 18 18 17 17 18 19 19 19 18 18 20 22 25 29 30 31
28 25 24 24 23 22 23 24 26 27 28 29 29 29 28 28 26 25 25 26 27 27 25 24 23 23 21 20 21 22 21 20 19 18 18 17 16 14 14 14 14 14 14 15 16 17 18 18 18 18 18 18 18 18 19 19 19 19 19 19 19 20 20 19 19 18 18 18 18 18 18 17 17 18 17 17 18 18 19 21 23 26 28 31 33
32 28 25 25 25 23 23 24 26 27 28 29 30 30 29 29 29 27 25 26 26 27 26 25 24 23 22 21 22 22 21 19 18 17 17 17 17 16 15 15 15 15 15 15 15 16 17 18 18 18 17 17 16 16 17 18 18 18 18 18 19 19 19 19 18 18 18 17 17 17 17 16 16 16 16 16 18 19 21 22 24 26 28 30 32
34 32 28 26 27 26 25 25 26 27 27 28 29 30 30 30 31 29 27 26 26 27 27 26 24 23 23 23 22 22 21 19 17 17 16 17 17 18 18 17 16 17 17 16 16 16 17 18 18 18 18 17 16 15 15 16 18 18 18 18 19 19 18 18 17 17 17 17 16 16 16 16 15 14 15 17 18 20 22 24 26 28 29 31 33
36 36 32 29 28 28 26 26 26 27 27 28 29 30 30 31 31 31 29 26 26 27 27 27 26 24 23 24 23 22 21 19 17 17 17 17 18 18 19 19 19 18 18 18 17 17 17 17 18 18 18 18 17 15 14 15 17 18 18 18 19 19 18 18 17 16 16 17 17 16 15 16 15 14 16 18 19 21 23 25 28 29 31 33 34
37 38 36 32 30 29 28 27 27 27 27 27 28 29 31 32 31 31 30 28 27 28 28 28 28 26 24 24 24 23 22 21 19 18 18 18 19 19 20 21 21 20 20 20 19 19 18 18 18 18 18 18 19 17 14 14 15 17 18 19 19 19 19 18 17 16 16 17 17 15 14 15 15 15 17 19 21 22 25 27 29 31 32 33 35
37 38 38 35 32 30 29 28 28 28 27 28 28 29 31 32 31 31 31 30 29 29 29 29 29 28 26 25 25 24 23 22 20 19 19 19 20 20 21 22 23 23 22 21 21 20 19 18 18 18 18 18 19 19 17 14 13 15 18 19 19 19 19 18 17 17 17 16 16 15 13 14 15 16 17 20 23 24 26 28 30 32 33 34 35
35 38 38 37 34 33 31 29 29 29 29 29 28 29 30 31 31 31 32 32 31 30 30 30 29 29 28 27 26 25 25 24 22 21 21 20 21 21 23 24 25 24 24 23 22 21 20 20 19 19 19 19 19 21 21 18 16 16 17 18 19 19 19 17 17 17 17 16 16 15 14 14 15 16 18 20 23 26 27 29 31 33 34 35 36
33 36 37 37 36 35 34 31 30 29 30 30 30 29 29 30 32 32 32 33 32 31 31 31 30 29 29 28 28 27 26 25 24 23 23 22 22 23 24 25 26 26 25 25 24 22 21 21 20 19 19 19 19 20 22 22 21 19 18 18 19 19 18 17 17 17 17 17 16 15 14 14 15 17 19 21 24 25 27 29 31 34 35 36 37
29 31 34 36 36 37 36 34 32 31 30 31 31 30 30 30 31 32 33 33 33 33 32 31 31 31 30 30 30 29 28 27 25 24 24 24 24 25 25 25 26 27 27 26 25 24 23 22 21 20 20 20 20 20 21 22 23 22 21 19 18 18 18 17 17 18 18 17 16 15 14 14 15 17 20 22 24 26 28 29 32 34 36 37 37
25 25 27 31 34 36 37 37 35 33 32 31 32 31 31 30 30 32 33 33 33 32 32 31 32 32 32 31 30 29 29 29 27 26 25 25 25 26 25 26 27 28 28 28 27 25 24 22 21 21 20 20 20 20 20 22 22 22 22 21 19 18 17 16 17 18 18 17 15 14 14 14 16 18 20 23 26 27 29 31 33 35 36 36 36
23 22 22 26 30 33 36 37 37 36 35 33 32 31 31 31 31 31 31 32 33 32 32 32 33 32 32 32 31 30 29 30 29 28 27 27 27 26 26 27 28 29 29 28 28 27 25 23 22 22 21 21 21 21 21 21 21 21 21 21 20 18 17 17 18 18 18 17 15 15 15 14 17 20 21 23 26 28 30 32 34 35 36 36 36
24 22 22 24 27 30 33 35 37 38 38 36 33 32 31 32 32 31 31 31 32 33 33 32 33 33 33 32 32 31 31 31 31 30 30 29 28 28 28 28 28 29 29 29 28 28 27 25 23 22 21 21 21 21 21 21 21 21 21 21 21 19 18 19 19 19 19 18 16 16 15 15 18 21 23 24 26 28 30 32 34 36 37 38 37
27 26 25 25 25 27 31 34 36 38 39 39 36 34 32 32 32 32 32 31 31 32 32 32 33 34 34 33 32 32 32 32 32 32 32 31 30 29 28 27 28 29 30 30 29 29 27 26 24 23 22 21 21 21 21 21 21 22 22 22 21 20 20 20 20 20 20 19 18 16 16 17 19 22 25 27 27 29 31 33 35 37 39 39 38
31 30 28 27 26 27 30 33 36 38 40 40 39 36 33 32 32 32 32 32 30 30 31 32 33 33 33 32 32 32 32 32 32 32 33 32 30 29 28 27 27 29 31 31 31 29 28 26 25 23 22 21 21 21 22 22 23 23 23 23 23 22 21 22 22 22 21 20 19 18 18 19 21 23 26 28 29 31 33 35 37 38 40 40 38
35 33 31 29 28 28 30 33 36 38 40 40 40 38 35 32 32 32 33 33 32 31 31 31 32 32 32 32 31 30 31 31 31 30 30 29 29 28 27 27 28 30 32 32 31 29 28 27 25 23 22 22 22 22 23 24 24 24 24 24 24 23 23 23 23 23 22 21 20 19 19 21 23 26 28 29 30 33 35 37 38 39 39 39 38
37 36 35 33 31 30 31 34 36 38 39 40 40 39 37 34 32 32 33 34 34 33 32 31 31 32 31 31 31 29 28 29 29 28 27 27 27 27 27 27 29 30 32 32 31 30 29 27 25 24 23 23 23 23 24 24 25 25 26 26 25 24 24 23 23 23 23 22 21 21 21 23 26 29 29 30 32 34 36 37 38 39 39 38 37
40 39 37 35 33 32 33 35 37 38 39 39 39 39 38 36 34 33 34 35 35 35 33 32 31 31 31 31 30 28 27 28 28 26 25 25 26 27 27 27 29 30 31 31 32 31 29 27 26 25 24 24 24 24 25 25 25 26 27 27 27 25 24 24 24 25 25 24 23 23 24 26 29 30 29 31 34 36 36 37 38 39 39 38 37
43 42 40 37 36 35 36 37 38 38 38 38 38 39 38 36 34 33 34 35 36 35 34 32 31 31 31 30 28 27 27 28 28 26 25 25 26 27 27 27 28 29 30 31 31 31 30 28 27 27 26 26 25 25 25 25 26 27 27 27 28 27 26 25 26 26 26 25 25 25 26 29 31 31 31 33 35 36 37 38 38 39 38 37 37
45 44 41 39 38 38 39 39 38 37 37 37 37 38 39 37 35 34 34 35 36 35 34 32 31 31 30 28 27 26 26 27 28 27 25 25 23 23 25 26 26 28 29 30 30 30 31 31 30 29 28 27 26 26 25 26 26 26 26 27 28 28 27 27 27 27 27 27 27 28 30 32 32 32 33 35 37 37 38 38 39 39 39 38 36
46 45 41 39 40 41 41 41 39 37 36 36 37 37 38 37 35 34 35 35 35 34 32 31 30 29 28 27 27 26 26 27 27 26 24 22 20 20 21 23 25 27 29 30 30 32 33 33 32 31 29 28 27 26 26 26 26 26 26 27 28 28 28 28 28 28 28 29 29 31 33 34 33 34 35 37 38 38 38 39 39 39 38 37 35
46 44 41 40 41 43 43 42 40 38 36 36 37 37 36 35 34 34 34 33 32 31 30 29 27 27 26 26 26 26 25 24 23 23 22 21 21 22 22 24 26 27 28 29 31 33 34 34 33 31 30 29 29 28 27 27 27 27 26 27 28 28 29 29 29 29 30 31 32 33 35 35 36 37 38 39 39 39 39 40 40 39 37 36 34
44 43 42 42 43 44 44 43 40 38 37 37 36 35 35 34 34 33 32 31 30 29 28 27 27 26 25 25 24 24 23 22 23 24 25 25 25 26 27 28 29 30 30 30 32 33 34 34 32 31 31 31 30 30 29 28 28 28 27 27 27 28 28 29 30 30 32 33 34 36 37 37 38 39 40 40 40 39 39 39 38 37 36 34 32
42 41 42 44 45 45 45 43 40 38 38 37 36 34 34 33 32 31 30 30 29 28 27 26 26 25 25 25 25 24 25 26 26 27 28 29 29 28 28 29 30 31 31 31 32 34 34 34 33 32 31 31 31 31 31 30 30 30 29 29 28 27 29 32 32 31 33 35 36 38 39 40 41 41 40 39 38 37 37 37 36 34 34 32 31
39 41 42 43 45 46 45 43 41 40 39 38 35 33 32 32 31 30 30 29 28 28 27 26 26 26 26 27 27 27 26 27 27 27 27 27 27 26 26 26 29 30 30 30 32 34 34 34 34 33 32 32 32 32 32 32 32 32 31 30 30 29 31 33 33 33 35 37 38 39 40 40 40 39 37 35 33 33 34 36 34 33 32 30 30
38 41 43 44 46 47 47 44 42 41 39 37 34 32 32 33 32 31 30 29 28 27 27 26 27 27 28 27 28 27 27 26 25 25 25 26 26 26 25 26 28 29 29 30 32 33 33 33 33 33 34 33 33 33 33 32 33 33 33 32 32 32 33 34 34 35 36 38 38 38 38 37 37 37 35 31 29 29 32 34 33 32 31 30 30
40 42 44 45 46 48 48 46 44 42 40 37 35 34 34 33 32 31 30 28 27 26 26 26 27 27 27 27 27 27 27 26 25 25 25 26 27 28 28 27 28 30 30 30 30 31 31 31 31 32 34 33 32 33 33 32 32 33 33 32 32 33 33 33 33 34 35 36 37 37 37 38 38 36 33 30 27 28 30 32 32 32 32 31 30
43 45 46 46 46 48 49 49 47 44 42 40 39 37 35 33 32 30 28 27 26 25 25 25 26 27 27 27 27 27 27 27 26 26 26 27 28 28 28 28 28 29 28 28 28 28 29 29 29 30 32 33 32 31 31 30 29 30 30 29 29 29 30 30 31 32 35 36 36 35 37 38 36 34 32 31 29 28 29 30 31 32 33 31 30
43 44 44 44 46 47 49 51 49 46 45 44 42 39 36 34 32 30 29 28 27 26 26 26 27 28 28 28 28 28 28 27 26 26 25 26 27 28 28 29 28 28 27 27 27 27 27 28 28 27 28 30 30 29 29 28 27 27 27 27 27 28 29 29 30 32 34 34 33 33 35 36 35 33 32 31 30 29 28 29 31 32 33 32 31
41 42 41 40 41 43 47 51 51 49 48 48 45 41 38 36 33 30 30 29 29 28 28 28 29 29 29 28 27 26 25 25 24 24 23 24 25 26 26 27 27 27 28 28 28 27 28 28 27 26 26 27 29 29 29 28 28 28 28 28 28 30 30 30 29 30 32 32 32 34 36 36 33 31 30 30 31 31 29 28 29 31 32 33 32
41 44 43 39 37 38 43 48 51 51 50 49 46 43 40 37 34 32 31 31 30 29 27 27 28 28 27 26 25 24 24 23 23 24 23 23 23 23 24 24 25 26 27 27 27 27 28 28 27 27 27 27 28 29 30 31 31 31 31 31 32 34 33 32 30 30 31 33 34 35 36 35 31 28 28 30 32 31 28 28 29 31 32 33 32
42 43 44 41 37 35 37 42 46 48 47 47 45 42 40 37 34 34 33 32 31 29 26 26 27 27 26 25 24 24 24 25 26 26 26 25 26 26 26 26 26 27 27 27 27 27 28 28 29 29 28 28 29 31 32 33 34 34 34 33 35 36 36 34 32 31 32 33 34 34 36 34 31 29 31 33 33 32 29 28 30 32 32 32 32
41 42 44 43 40 37 35 37 39 40 40 41 41 39 38 36 35 35 34 32 31 29 28 28 28 26 24 24 25 26 27 28 28 28 28 28 29 29 29 30 30 31 31 31 30 30 30 30 31 32 32 32 31 32 33 35 36 37 36 35 36 37 36 34 32 33 34 35 34 33 35 34 32 32 34 35 34 32 30 29 30 31 31 31 31
38 41 44 44 42 39 35 34 36 38 38 40 40 38 37 37 37 36 35 33 32 30 28 28 26 23 22 24 26 28 29 29 29 28 28 29 30 31 32 32 32 33 34 34 34 34 33 33 33 33 32 32 32 33 35 36 37 38 39 38 38 39 37 33 31 33 34 34 34 34 34 33 32 32 34 34 31 28 26 27 28 28 29 29 30
37 39 41 40 38 36 33 32 35 38 38 39 40 40 38 38 38 38 37 35 33 29 26 25 24 23 24 26 28 29 30 30 30 29 29 30 31 31 32 32 33 33 34 34 35 36 35 33 33 32 31 32 33 34 36 38 38 39 39 39 39 39 37 32 31 32 33 33 34 35 34 33 32 31 31 29 27 25 25 26 27 27 28 29 29
33 33 36 37 35 34 33 33 34 36 38 39 40 40 40 39 39 37 35 34 31 28 27 27 27 28 30 31 32 32 32 31 31 31 31 32 32 31 32 32 32 32 32 32 33 34 33 32 31 31 31 32 33 33 34 37 38 38 39 41 41 40 36 33 33 34 33 32 32 32 30 30 29 28 26 25 25 26 26 26 27 27 28 28 28
33 27 30 35 36 35 36 36 36 37 40 41 40 38 38 38 38 36 35 34 33 32 32 33 33 34 34 35 35 35 35 34 34 34 34 33 33 32 32 32 31 31 30 30 31 31 31 31 31 31 32 33 34 34 35 37 38 38 40 42 40 37 33 32 32 30 28 25 25 25 26 26 26 26 26 26 26 26 26 26 27 27 27 28 27
35 28 28 34 38 38 39 38 37 38 40 40 39 37 36 36 36 36 36 36 36 35 36 37 37 37 38 38 38 38 37 37 37 36 34 33 32 32 31 31 31 30 30 30 30 30 29 31 32 32 33 35 36 35 35 36 37 37 37 37 37 34 32 31 29 26 23 22 22 23 25 25 25 25 26 26 26 26 26 27 29 29 28 28 28
29 26 26 31 36 38 40 40 38 37 38 38 37 36 35 34 35 35 35 36 36 37 38 39 39 39 39 39 38 37 36 36 35 34 32 31 30 30 30 31 31 31 30 31 32 32 32 33 34 34 34 35 35 35 34 35 36 36 35 35 35 35 32 29 26 24 23 23 23 24 25 25 25 26 26 26 27 27 27 28 29 30 30 30 30
21 20 21 24 26 28 32 35 35 35 35 36 35 35 35 34 34 34 34 35 37 38 39 40 40 39 38 36 34 32 31 30 30 29 29 28 28 29 30 31 32 32 31 32 33 33 33 34 35 34 33 33 34 34 34 33 33 34 33 33 33 32 29 26 24 24 24 25 25 26 26 26 25 26 27 28 27 27 27 28 29 30 31 31 32
15 16 18 19 19 19 21 24 27 29 30 29 29 31 32 33 32 32 34 35 36 38 38 37 36 34 31 30 28 27 26 26 26 26 27 28 29 31 32 33 33 32 31 31 31 32 33 34 35 33 31 30 30 30 30 30 30 29 29 29 29 29 27 26 25 24 25 26 27 27 27 26 26 27 28 28 28 28 29 29 30 31 32 32 33
8 11 15 17 17 17 17 18 19 21 22 22 22 24 26 27 27 28 30 33 34 34 34 32 30 29 28 27 28 28 27 27 27 28 29 30 31 32 32 32 32 31 31 30 31 32 32 32 31 30 28 27 26 27 28 28 28 28 28 28 28 28 27 27 26 27 27 27 27 27 26 26 27 28 28 29 29 30 31 32 32 32 33 33 34
6 8 11 13 15 17 18 19 18 18 19 21 22 22 22 23 23 23 25 27 27 28 29 30 29 27 26 26 26 27 28 29 29 30 30 30 30 30 31 31 31 30 29 28 28 29 29 28 27 26 25 24 24 25 26 27 27 27 27 27 26 26 26 26 27 27 27 27 27 28 28 28 29 30 30 30 31 32 33 33 34 33 33 33 34
8 8 7 8 9 12 15 18 20 21 21 22 22 22 21 21 21 23 25 26 26 26 28 27 25 24 25 26 27 27 27 28 28 29 29 29 29 29 28 28 28 28 27 26 26 26 26 25 25 24 24 24 24 25 26 26 26 27 26 26 26 26 26 26 27 27 28 28 29 30 31 31 31 32 32 32 33 33 33 33 33 33 33 34 35
Wind_Direction
219 219 219 220 221 221 222 224 224 222 222 225 226 225 225 223 222 224 225 224 227 228 224 223 226 226 226 229 229 225 221 220 219 218 218 219 217 216 214 210 208 206 207 210 210 209 209 208 210 215 215 216 220 225 229 235 240 244 250 255 262 272 276 279 283 286 296 303 308 310 311 314 317 317 318 319 319 319 321 323 324 326 327 329 330
221 218 217 218 220 220 221 222 223 223 223 225 226 225 226 225 222 224 226 225 227 229 225 225 228 229 228 231 233 231 225 223 222 219 219 223 224 223 223 220 218 218 217 218 220 220 222 223 225 228 232 233 235 240 244 248 251 252 255 257 260 269 274 275 279 280 283 289 295 298 301 305 308 311 313 315 316 318 320 322 323 323 324 325 326
222 220 218 218 219 219 219 220 222 223 224 225 226 225 226 227 224 224 226 226 227 229 227 225 229 231 230 232 234 235 232 227 226 223 220 223 226 227 229 228 226 227 227 227 229 230 232 234 236 239 242 243 245 249 253 257 261 264 266 266 266 272 278 280 282 282 281 284 290 294 298 301 305 309 310 310 312 314 316 317 317 318 320 322 325
221 221 219 219 219 219 219 219 220 222 224 225 226 226 226 227 226 225 226 228 228 228 227 225 228 232 231 232 234 236 237 233 230 229 227 226 228 230 233 233 231 232 233 235 237 239 240 241 243 246 248 249 251 255 259 263 267 270 274 277 279 280 284 287 290 290 288 289 293 297 299 301 304 307 306 306 307 309 311 313 314 317 319 320 323
222 221 220 220 221 219 219 219 219 220 223 224 226 227 227 227 227 226 226 229 229 228 227 226 228 231 232 233 234 236 238 238 235 235 234 232 232 233 236 236 234 234 236 238 240 242 244 246 247 249 251 253 254 257 262 265 268 271 274 278 281 283 284 287 289 291 291 292 295 297 299 302 304 305 304 303 304 306 311 315 316 316 316 318 327
221 220 219 221 222 220 219 219 220 220 221 222 224 227 229 228 228 227 227 229 230 229 227 228 229 231 232 233 233 234 235 237 237 237 238 236 235 236 239 239 238 237 238 240 242 244 246 248 249 251 252 255 257 258 260 263 267 270 274 277 279 281 282 284 286 288 290 293 296 297 298 300 302 302 303 304 306 310 314 316 315 316 320 328 338
222 219 217 219 221 221 220 220 221 220 219 220 222 224 229 231 230 229 228 229 232 230 228 229 231 231 231 232 232 232 232 234 235 237 239 238 237 238 240 241 241 240 241 242 245 247 249 250 251 253 254 256 258 260 262 263 266 268 272 275 279 281 284 286 288 289 292 296 299 299 298 300 304 306 308 309 309 310 313 314 318 326 332 336 340
224 220 216 219 221 221 221 221 221 220 219 220 220 221 226 231 232 231 229 230 232 233 229 227 230 231 229 229 231 231 230 231 232 234 238 240 239 239 242 244 245 243 243 245 248 250 252 253 254 255 256 258 260 262 263 265 267 269 271 274 277 280 283 285 288 290 294 296 298 298 299 302 307 307 306 307 306 309 316 320 324 331 334 335 338
226 222 217 218 220 220 221 222 222 221 221 220 220 221 222 227 231 232 230 230 232 235 233 228 228 231 229 228 231 233 231 230 231 232 236 241 244 244 244 247 249 249 247 246 249 253 256 258 258 257 257 258 260 262 264 267 269 270 272 274 276 279 282 283 286 289 291 292 293 294 296 301 304 302 303 307 309 314 321 323 325 331 331 331 336
229 228 220 217 219 220 219 221 222 222 222 221 222 223 222 224 228 229 229 230 232 235 236 232 227 227 229 229 230 234 234 231 231 233 234 239 246 248 246 246 250 253 253 250 250 254 258 262 264 264 262 259 257 260 264 269 272 273 273 275 276 277 278 280 283 286 287 288 289 290 294 299 301 302 308 313 313 318 322 322 324 329 329 329 334
230 231 227 219 218 220 219 219 221 222 224 223 223 225 224 224 227 229 227 226 229 233 236 237 232 226 228 229 229 233 237 234 230 231 233 234 240 247 249 247 247 250 254 254 253 254 257 260 264 267 269 268 264 261 262 266 271 273 275 276 276 276 276 278 281 283 284 285 285 289 295 299 303 310 314 313 314 320 322 322 325 328 330 330 333
230 232 231 224 220 221 220 219 220 222 224 225 224 226 227 227 228 230 229 224 224 229 234 239 239 231 227 229 230 233 237 237 232 230 232 234 235 241 247 249 247 247 250 255 256 256 257 260 262 265 269 272 272 268 264 264 268 271 272 273 273 275 277 278 279 280 281 282 284 291 299 300 304 313 313 311 317 322 322 323 327 330 332 332 332
231 232 233 229 224 223 221 220 221 222 224 225 225 225 228 230 230 231 232 229 224 226 231 237 242 240 233 230 230 233 235 236 235 231 232 236 237 239 243 247 249 247 247 250 253 255 256 259 263 266 270 274 275 271 265 262 265 268 269 270 271 273 275 276 277 277 277 279 283 292 301 299 300 309 311 313 319 322 321 325 328 330 332 331 332
230 233 234 232 228 227 225 223 222 223 224 225 226 225 228 232 233 232 233 233 229 226 228 232 238 242 241 236 233 234 234 236 236 234 234 236 238 241 243 246 248 248 247 247 249 252 254 256 259 264 269 274 278 278 274 265 262 265 268 269 269 270 271 272 274 273 273 275 280 288 297 298 299 306 312 315 319 320 321 325 328 330 331 331 332
230 234 236 234 231 229 228 226 224 224 225 226 227 227 228 231 233 233 233 235 234 231 229 231 234 239 243 243 240 236 234 234 234 234 234 235 237 240 244 246 248 249 248 247 247 249 251 253 256 260 264 270 275 280 281 278 270 265 265 268 269 269 269 270 271 272 271 273 277 284 294 298 300 305 310 314 316 318 321 324 327 329 331 332 332
230 233 236 237 235 232 231 229 226 225 226 227 228 228 228 229 231 233 234 235 237 235 232 232 233 236 239 243 244 241 238 235 232 231 232 233 235 238 241 245 248 250 250 249 249 250 250 251 254 256 261 266 269 274 278 280 279 273 268 266 266 266 266 265 265 268 271 273 276 282 289 293 297 303 307 309 312 315 318 322 326 330 332 332 330
228 232 235 237 238 236 235 232 228 227 227 229 230 230 229 229 230 232 234 236 238 237 235 233 233 235 237 239 241 244 243 240 235 232 231 232 234 238 240 243 247 250 251 252 251 251 250 251 254 256 258 262 264 266 269 273 275 276 274 270 265 262 260 259 259 260 261 265 269 274 278 284 292 299 303 306 310 313 316 321 327 331 331 329 327
226 231 234 236 237 237 238 235 232 230 229 230 232 232 231 230 230 231 234 236 239 240 238 235 235 235 236 237 239 241 244 245 241 236 233 233 235 238 240 242 245 247 250 252 253 253 253 253 255 257 259 261 263 263 264 265 268 272 274 272 267 261 257 257 259 259 257 260 263 264 267 276 287 294 300 306 309 313 318 323 328 329 327 326 324
227 232 235 237 238 237 238 238 235 233 232 232 232 233 232 231 231 232 233 236 239 241 239 237 236 237 237 238 238 239 241 244 244 240 237 236 237 239 239 241 244 246 248 251 253 255 255 255 256 258 260 262 263 263 262 263 264 266 268 269 267 263 262 263 263 263 263 264 265 263 266 277 286 292 298 305 309 313 318 322 324 324 324 325 323
228 235 237 239 240 238 237 239 237 235 234 234 233 233 233 232 231 232 233 234 237 240 240 238 236 237 238 238 238 238 238 239 241 241 238 237 238 241 241 242 244 248 250 252 253 255 256 257 258 259 260 261 262 262 261 261 261 262 263 264 265 265 266 267 267 267 266 265 264 265 271 281 288 292 296 301 305 310 314 318 319 321 323 324 323
228 232 235 238 241 239 237 238 238 237 236 235 234 233 233 233 233 231 232 234 235 237 240 239 236 235 237 239 239 239 239 238 239 240 240 238 239 241 242 243 245 249 251 253 253 254 256 257 259 260 260 260 259 258 258 259 259 260 261 263 265 266 268 269 270 269 268 266 265 267 275 283 288 292 296 299 303 308 311 315 318 321 323 323 322
226 228 232 235 238 238 236 236 237 237 237 236 235 234 233 234 233 231 230 232 234 235 237 239 238 236 236 238 239 240 240 240 239 240 242 242 242 242 243 243 244 248 251 252 254 255 257 258 259 260 259 257 256 255 255 257 258 260 262 264 266 267 268 269 269 268 267 265 265 269 276 282 287 292 295 298 304 309 311 314 318 320 322 322 320
228 227 227 231 234 236 236 235 235 237 238 237 236 235 234 234 234 232 230 230 232 234 234 236 238 239 238 239 241 240 241 242 240 239 242 245 245 244 243 242 243 246 250 253 255 257 259 259 259 258 255 253 253 253 254 256 259 262 264 265 267 267 267 267 268 267 265 262 262 267 273 280 286 290 292 298 305 309 310 314 318 319 320 320 318
231 228 225 226 230 233 233 233 234 235 237 238 237 236 235 234 234 233 230 229 231 233 234 234 236 239 239 240 241 242 242 244 245 242 242 244 245 245 243 243 244 246 250 254 257 258 259 260 260 259 256 254 254 255 255 257 260 263 265 266 268 268 267 266 266 265 262 260 262 267 273 279 284 286 292 301 305 306 309 314 316 316 317 317 315
232 230 226 223 225 229 230 231 233 234 236 238 238 236 235 234 235 234 231 230 231 232 234 235 235 238 240 240 241 241 241 244 247 246 243 241 242 244 244 244 246 248 251 254 258 260 261 262 261 261 261 260 260 260 260 261 262 263 264 266 268 268 267 267 265 261 257 258 262 268 274 279 282 286 294 301 302 304 309 312 312 314 315 314 312
232 230 226 222 222 225 227 229 231 233 235 237 237 236 234 234 235 235 233 231 231 232 234 234 234 236 239 240 240 240 240 243 247 247 245 242 241 242 244 246 248 250 252 254 257 262 265 267 266 266 265 265 266 266 265 264 263 262 263 264 266 267 267 266 263 258 255 257 262 268 273 277 280 286 294 298 299 302 307 308 310 312 313 312 310
231 229 225 220 219 222 225 228 230 231 233 236 236 234 232 233 234 235 234 232 232 231 232 233 234 235 237 239 240 238 238 242 246 247 246 247 246 244 242 244 247 250 254 256 259 262 266 268 268 269 269 269 269 268 267 266 264 264 264 264 264 265 265 264 261 256 254 257 262 267 271 275 279 286 292 294 297 301 304 306 308 310 310 308 307
230 229 225 219 218 220 223 225 228 230 231 234 235 232 231 232 233 235 235 233 232 231 232 233 234 235 235 236 238 239 239 241 247 250 250 251 253 251 248 246 248 252 255 258 259 261 262 263 265 266 268 269 269 268 267 266 265 264 263 263 263 264 264 263 259 254 253 257 262 267 271 275 281 286 289 292 296 299 302 304 306 306 305 305 302
228 226 223 219 217 219 221 224 226 227 228 231 232 231 230 232 234 236 235 233 231 231 232 233 234 235 236 236 237 241 244 244 248 253 254 252 251 251 251 251 251 252 253 254 255 256 257 259 260 262 264 266 267 267 267 266 265 264 263 263 263 264 264 263 259 255 254 257 261 266 271 276 281 285 289 292 295 298 301 302 303 302 302 301 299
226 223 219 217 217 218 220 222 223 223 225 228 228 227 229 232 235 235 232 229 228 228 229 230 232 234 236 237 239 242 246 249 251 253 254 254 252 251 251 251 251 251 252 252 252 254 256 258 260 261 263 265 267 268 268 268 268 267 266 265 265 265 265 264 259 256 257 259 263 268 272 277 281 285 288 291 294 298 300 300 300 300 300 298 296
219 216 214 214 215 218 219 220 220 221 222 223 225 227 230 232 231 228 225 224 224 225 226 227 230 233 236 240 243 246 249 252 254 254 255 256 256 253 252 252 252 252 252 253 254 255 257 260 262 263 265 266 267 268 269 269 269 268 267 266 265 264 265 264 262 261 262 264 266 270 274 278 282 285 288 290 294 297 298 297 297 297 296 294 292
213 211 210 211 213 216 218 217 217 218 218 220 222 224 224 223 220 219 219 220 222 224 227 230 233 237 242 246 250 252 253 253 254 254 253 253 253 253 251 251 252 253 253 253 254 255 257 259 261 262 263 263 265 266 267 268 269 269 268 267 266 265 264 264 265 266 266 266 269 272 276 279 281 281 282 284 287 291 293 294 294 293 292 290 290
215 210 208 209 211 213 214 214 214 214 215 217 218 215 212 213 215 217 220 223 225 228 233 238 243 246 248 250 251 252 252 250 249 247 246 247 248 249 248 248 250 253 254 253 253 255 257 258 258 259 259 260 261 262 263 264 266 267 268 269 269 267 266 266 267 268 270 272 273 274 275 275 274 274 274 276 281 287 291 292 292 291 290 290 290
217 214 209 207 209 210 211 211 210 211 212 213 211 209 209 213 217 220 224 228 232 236 241 245 247 248 247 246 245 245 246 246 244 242 242 244 246 248 250 250 251 252 253 254 255 256 257 258 259 259 259 259 260 260 262 263 265 266 267 268 268 268 267 267 269 271 272 273 273 273 272 271 271 274 280 286 287 287 289 290 290 289 289 289 290
213 214 210 207 208 209 209 208 208 208 209 208 207 208 213 216 219 223 229 235 240 243 241 240 240 240 240 240 240 240 241 243 244 243 243 245 248 251 253 255 255 256 256 257 259 260 260 260 260 260 261 262 262 263 264 265 267 268 269 271 273 274 273 273 273 273 273 274 274 274 274 275 277 282 289 292 289 285 286 287 288 288 288 290 290
210 209 207 207 209 209 208 207 207 206 206 207 207 210 215 218 222 228 234 239 239 235 231 229 230 233 235 236 237 237 238 240 242 243 244 246 250 253 255 256 258 259 259 260 260 261 261 261 261 262 264 266 267 268 269 270 272 273 276 279 281 281 280 277 277 278 279 279 279 277 277 279 281 283 284 284 283 283 284 285 286 287 288 290 290
215 214 210 207 210 212 209 207 207 207 207 208 211 213 216 221 226 230 232 232 230 229 228 227 227 229 232 233 234 235 237 239 242 244 245 247 250 254 257 259 258 257 256 257 255 255 257 260 262 264 266 268 270 272 274 277 279 279 279 280 280 278 277 276 277 280 283 284 282 280 279 276 275 275 278 280 282 282 282 282 284 286 287 289 291
216 218 216 211 210 213 212 208 207 209 210 211 213 216 220 225 228 227 225 223 224 225 225 223 223 225 229 233 236 238 240 243 245 247 249 250 252 255 259 260 260 258 256 255 254 252 254 257 261 263 264 267 271 274 275 276 277 277 277 278 277 276 274 274 275 277 279 278 276 274 272 267 266 273 279 280 280 282 283 284 285 285 286 290 294
220 220 220 217 213 212 212 208 206 208 210 212 215 218 222 224 224 222 220 218 218 219 219 219 221 224 227 232 238 242 244 246 247 249 251 253 254 255 256 257 258 258 258 258 258 257 258 260 261 261 261 264 267 270 271 273 273 272 272 274 274 273 273 275 277 277 275 272 271 272 271 269 270 276 279 279 281 284 285 284 284 286 288 291 293
222 219 218 218 215 212 210 207 203 202 206 211 215 218 220 219 219 219 217 215 215 217 218 221 225 229 231 235 239 242 244 245 247 249 252 254 254 255 256 257 257 258 259 260 261 262 263 265 264 264 264 266 266 267 269 270 270 270 271 271 271 272 274 277 282 283 280 276 275 277 276 274 273 275 276 278 280 280 279 280 283 287 288 289 290
213 215 216 217 217 216 213 206 199 197 202 208 212 214 214 213 215 217 217 217 219 222 224 226 231 237 239 238 237 239 241 243 246 249 251 253 254 255 256 257 258 259 260 261 262 263 265 266 266 266 267 267 268 269 269 268 269 271 272 273 274 275 277 280 284 284 280 275 275 276 274 270 270 272 274 277 279 278 278 281 283 284 285 285 287
206 208 211 214 217 219 217 210 202 199 202 207 210 210 209 209 212 215 218 221 225 229 232 234 237 240 241 240 239 240 242 244 247 249 250 252 253 255 257 258 260 260 260 261 262 264 265 266 268 268 266 264 264 266 267 269 271 272 272 273 275 275 276 277 280 279 276 273 274 274 272 270 271 274 277 280 282 282 282 282 281 281 281 283 286
209 202 201 206 211 214 214 211 206 203 205 208 210 210 210 211 213 218 223 228 232 236 238 239 239 240 241 243 243 244 245 247 249 250 251 253 254 256 257 259 260 260 261 262 263 264 266 267 267 266 266 266 266 266 266 268 271 272 272 273 271 268 268 272 274 274 273 274 273 273 272 273 275 276 278 279 280 280 279 280 280 281 282 284 287
221 207 196 198 205 210 210 209 207 205 207 209 210 211 212 213 216 221 227 232 235 237 238 239 240 242 244 247 248 249 249 250 251 252 253 254 255 256 257 258 259 260 261 262 262 263 264 264 263 262 263 265 267 267 267 269 271 271 271 272 270 267 269 274 274 272 272 271 269 267 268 270 272 274 277 279 280 280 281 281 282 283 285 287 290
227 220 201 196 201 207 209 210 210 208 209 210 210 210 212 215 220 225 229 232 235 237 239 240 242 245 248 250 252 253 252 252 251 252 253 253 254 255 256 257 258 260 261 262 261 260 260 261 261 261 261 262 264 266 267 269 270 269 269 270 271 272 273 274 273 272 271 268 264 263 265 268 271 274 276 278 280 281 283 285 286 287 290 291 291
225 223 211 205 205 206 206 208 210 211 212 213 213 213 215 219 223 226 229 231 233 236 239 242 245 248 250 251 252 252 252 251 250 250 250 250 251 252 254 257 259 260 260 259 258 257 258 257 257 257 257 259 262 265 265 266 267 269 270 271 271 272 273 274 274 273 271 267 266 268 269 271 274 276 276 278 281 284 286 288 289 290 292 292 292
217 216 212 211 212 210 207 207 209 210 213 215 218 220 221 223 225 227 229 232 235 238 241 244 246 246 246 247 248 250 250 249 248 248 248 248 250 251 252 255 258 260 259 259 258 257 256 253 253 256 258 259 261 263 264 264 264 265 266 268 269 269 271 271 271 270 269 270 272 273 273 274 276 278 279 281 284 286 287 288 288 289 290 291 291
209 211 208 207 207 206 205 206 208 210 211 213 217 221 222 223 226 229 232 234 237 239 240 240 241 241 241 241 242 242 242 241 242 244 246 248 249 250 252 254 257 258 259 260 259 256 253 252 253 258 260 260 260 261 263 265 267 266 267 268 269 270 271 271 271 272 274 275 276 277 278 278 279 279 280 283 285 285 286 286 286 286 287 288 289
204 206 210 211 207 201 197 198 202 205 206 208 212 218 222 224 227 230 234 236 237 237 236 233 231 231 233 235 236 236 236 235 237 240 244 246 247 248 251 253 254 256 258 258 254 252 251 251 254 257 259 259 259 261 263 266 268 269 269 269 270 270 271 273 273 275 276 276 276 277 277 277 277 278 280 282 284 285 286 286 287 287 288 288 289
209 198 206 213 214 211 210 210 209 207 207 210 214 217 222 226 227 227 230 232 233 234 235 232 228 229 232 236 238 239 239 238 238 240 243 245 248 251 252 252 252 254 256 254 251 250 252 254 257 259 260 261 262 263 265 266 267 267 267 268 268 269 271 272 273 274 275 275 276 276 275 275 276 278 280 281 283 284 286 287 288 288 288 288 289
214 205 198 195 200 209 216 221 222 220 218 219 221 221 225 231 236 237 235 233 233 236 237 234 229 228 231 232 233 236 237 236 237 240 243 246 249 251 251 250 250 251 253 253 254 255 258 260 261 262 263 264 265 266 266 267 268 269 270 271 271 272 273 274 275 275 275 275 275 275 276 276 278 279 280 282 283 285 285 286 287 288 289 289 289
Height
3176 3178 3181 3183 3185 3188 3190 3192 3194 3197 3199 3200 3203 3205 3206 3208 3210 3211 3213 3215 3216 3218 3220 3222 3223 3225 3226 3227 3228 3229 3231 3232 3233 3235 3236 3237 3238 3239 3240 3241 3241 3242 3243 3244 3245 3246 3246 3247 3248 3249 3249 3250 3251 3251 3252 3252 3252 3253 3253 3253 3254 3254 3254 3254 3254 3255 3254 3254 3254 3254 3254 3253 3252 3252 3251 3250 3250 3249 3248 3247 3245 3244 3243 3242 3241
3174 3176 3178 3180 3183 3185 3188 3190 3192 3194 3196 3198 3200 3202 3204 3206 3208 3209 3211 3213 3214 3216 3219 3221 3222 3223 3224 3225 3227 3228 3229 3231 3232 3233 3235 3236 3237 3238 3239 3240 3241 3241 3242 3243 3244 3245 3245 3246 3247 3248 3249 3249 3250 3250 3251 3251 3252 3252 3252 3252 3253 3253 3253 3253 3253 3253 3254 3254 3253 3253 3253 3252 3251 3251 3250 3249 3248 3247 3246 3246 3244 3243 3242 3241 3240
3172 3174 3176 3178 3180 3183 3185 3187 3190 3192 3194 3196 3198 3200 3202 3204 3206 3207 3209 3211 3212 3214 3217 3219 3220 3221 3223 3224 3225 3226 3228 3229 3231 3232 3233 3234 3235 3236 3237 3238 3239 3240 3241 3242 3243 3243 3244 3245 3246 3247 3247 3248 3249 3249 3250 3250 3250 3251 3251 3251 3251 3252 3252 3252 3252 3252 3252 3252 3252 3252 3251 3251 3250 3249 3248 3247 3246 3246 3245 3244 3243 3242 3241 3240 3239
3170 3172 3174 3176 3178 3180 3182 3185 3187 3189 3191 3193 3195 3198 3200 3202 3203 3205 3207 3208 3210 3212 3215 3217 3218 3220 3221 3222 3224 3225 3226 3228 3229 3230 3232 3233 3234 3235 3236 3237 3238 3239 3240 3240 3241 3242 3243 3244 3245 3245 3246 3247 3247 3248 3248 3249 3249 3249 3250 3250 3250 3250 3250 3250 3250 3250 3250 3251 3251 3250 3250 3249 3249 3248 3247 3245 3245 3244 3243 3243 3242 3241 3240 3239 3239
3168 3170 3172 3174 3175 3178 3180 3182 3184 3186 3189 3191 3193 3195 3197 3199 3201 3203 3205 3206 3208 3210 3213 3214 3216 3218 3219 3221 3222 3224 3225 3226 3227 3229 3230 3231 3232 3233 3234 3235 3236 3237 3238 3239 3239 3240 3241 3242 3243 3244 3244 3245 3246 3246 3247 3247 3247 3248 3248 3248 3248 3248 3249 3249 3249 3249 3248 3249 3249 3248 3248 3247 3247 3246 3245 3243 3243 3242 3241 3241 3240 3240 3239 3238 3237
3166 3168 3170 3171 3173 3175 3177 3179 3181 3184 3186 3188 3191 3193 3195 3197 3199 3201 3203 3204 3206 3208 3210 3212 3214 3216 3218 3219 3221 3222 3223 3224 3226 3227 3228 3229 3230 3231 3232 3233 3234 3235 3236 3236 3237 3238 3239 3240 3241 3241 3242 3243 3244 3244 3245 3245 3245 3246 3246 3246 3246 3246 3247 3247 3247 3247 3247 3247 3247 3246 3246 3245 3245 3244 3243 3242 3241 3240 3240 3239 3238 3237 3237 3236 3235
3163 3165 3167 3169 3171 3173 3175 3177 3179 3181 3184 3186 3189 3191 3193 3195 3197 3199 3201 3202 3203 3205 3208 3210 3212 3214 3216 3217 3219 3220 3222 3223 3224 3225 3226 3227 3228 3229 3230 3231 3232 3233 3234 3234 3235 3236 3236 3237 3238 3239 3240 3240 3241 3242 3243 3243 3243 3244 3244 3244 3244 3244 3244 3244 3244 3244 3244 3244 3244 3244 3243 3243 3243 3242 3241 3240 3239 3238 3238 3237 3235 3234 3233 3232 3232
3161 3163 3165 3167 3169 3171 3173 3175 3177 3180 3182 3184 3186 3188 3190 3192 3194 3197 3199 3200 3201 3203 3205 3208 3210 3212 3214 3215 3217 3218 3220 3221 3222 3223 3224 3225 3227 3228 3229 3229 3230 3231 3232 3232 3233 3233 3234 3235 3235 3236 3237 3238 3239 3240 3240 3240 3241 3241 3241 3242 3242 3242 3242 3242 3242 3242 3242 3242 3242 3241 3241 3241 3241 3240 3239 3238 3237 3237 3236 3235 3233 3232 3230 3229 3229
3159 3161 3163 3164 3166 3169 3171 3173 3176 3178 3180 3182 3183 3185 3188 3189 3192 3194 3196 3198 3200 3201 3202 3205 3207 3209 3211 3213 3214 3215 3217 3219 3220 3221 3223 3224 3225 3226 3227 3228 3228 3229 3230 3231 3231 3231 3232 3232 3233 3234 3235 3236 3237 3237 3237 3238 3238 3239 3239 3239 3239 3239 3239 3240 3240 3240 3240 3240 3240 3239 3239 3239 3239 3239 3238 3237 3235 3235 3234 3233 3232 3231 3229 3227 3226
3157 3159 3161 3162 3164 3167 3169 3171 3173 3175 3177 3179 3181 3183 3185 3187 3188 3191 3194 3196 3198 3199 3200 3202 3204 3206 3208 3210 3212 3213 3214 3216 3218 3220 3221 3222 3223 3224 3225 3226 3227 3227 3228 3229 3229 3230 3230 3230 3231 3231 3232 3233 3234 3235 3235 3236 3236 3236 3236 3237 3237 3237 3237 3237 3238 3238 3238 3238 3238 3238 3237 3238 3237 3236 3235 3234 3233 3233 3232 3231 3230 3229 3228 3226 3224
3154 3156 3159 3161 3162 3164 3167 3169 3171 3173 3175 3177 3179 3181 3183 3184 3186 3188 3190 3193 3195 3197 3198 3199 3201 3204 3206 3207 3209 3210 3212 3214 3216 3218 3219 3221 3221 3222 3223 3224 3225 3225 3225 3226 3227 3228 3228 3229 3229 3229 3229 3230 3232 3233 3234 3234 3233 3234 3234 3234 3234 3234 3235 3235 3236 3236 3236 3235 3235 3236 3236 3235 3235 3234 3233 3232 3232 3232 3231 3230 3229 3228 3226 3223 3221
3151 3154 3156 3159 3160 3162 3165 3167 3169 3171 3173 3175 3177 3179 3180 3182 3184 3185 3187 3190 3193 3194 3196 3197 3198 3201 3203 3204 3206 3208 3210 3212 3214 3216 3217 3218 3219 3220 3220 3221 3222 3223 3223 3224 3225 3226 3226 3227 3227 3227 3228 3228 3229 3230 3231 3232 3231 3232 3232 3232 3232 3232 3232 3233 3233 3233 3233 3233 3233 3234 3234 3233 3232 3232 3231 3231 3230 3230 3229 3228 3227 3226 3224 3222 3220
3148 3150 3153 3156 3159 3160 3162 3165 3167 3168 3170 3172 3175 3177 3178 3179 3181 3183 3185 3187 3190 3191 3193 3195 3196 3198 3200 3202 3204 3206 3207 3209 3211 3213 3215 3216 3217 3218 3218 3219 3219 3220 3221 3222 3222 3223 3224 3225 3225 3225 3226 3226 3226 3227 3229 3229 3229 3229 3229 3230 3230 3230 3230 3231 3231 3231 3231 3231 3231 3231 3231 3230 3230 3230 3230 3229 3228 3227 3226 3226 3225 3223 3222 3220 3218
3145 3147 3150 3153 3156 3158 3160 3162 3164 3166 3168 3170 3172 3174 3175 3177 3179 3181 3182 3184 3186 3188 3190 3192 3194 3195 3197 3199 3201 3203 3205 3206 3209 3210 3212 3214 3215 3215 3216 3216 3216 3217 3218 3219 3220 3221 3222 3223 3223 3224 3224 3224 3224 3224 3225 3227 3227 3227 3227 3227 3227 3228 3228 3228 3229 3229 3229 3229 3229 3229 3229 3229 3228 3228 3228 3227 3226 3225 3224 3223 3222 3221 3219 3218 3216
3143 3145 3147 3150 3153 3156 3158 3160 3162 3164 3166 3167 3169 3171 3173 3174 3176 3178 3180 3181 3183 3185 3188 3190 3191 3193 3194 3196 3198 3200 3202 3204 3206 3208 3209 3211 3212 3213 3213 3213 3214 3214 3215 3216 3217 3219 3220 3220 3221 3222 3222 3223 3223 3222 3222 3223 3224 3225 3225 3225 3225 3225 3226 3226 3226 3226 3226 3227 3227 3227 3227 3227 3226 3226 3226 3225 3224 3223 3222 3221 3220 3219 3217 3214 3213
3140 3142 3145 3147 3150 3152 3155 3157 3159 3161 3163 3164 3166 3168 3170 3172 3173 3175 3177 3178 3180 3182 3185 3186 3188 3190 3192 3193 3195 3196 3198 3200 3202 3204 3206 3208 3209 3210 3210 3210 3211 3212 3213 3214 3215 3216 3217 3218 3219 3220 3220 3221 3222 3221 3221 3220 3221 3221 3222 3222 3222 3223 3223 3224 3224 3224 3224 3224 3224 3225 3225 3225 3224 3224 3224 3223 3222 3221 3220 3220 3218 3216 3214 3211 3210
3137 3139 3142 3144 3146 3149 3151 3154 3156 3158 3160 3161 3163 3165 3167 3169 3171 3173 3174 3176 3177 3179 3181 3184 3185 3187 3189 3190 3192 3193 3195 3197 3199 3201 3203 3205 3206 3206 3207 3208 3208 3209 3210 3211 3212 3213 3215 3216 3217 3217 3218 3219 3219 3220 3220 3219 3218 3218 3218 3219 3220 3220 3221 3221 3222 3222 3222 3222 3223 3223 3223 3223 3222 3222 3221 3221 3220 3220 3219 3217 3216 3213 3211 3209 3207
3135 3137 3139 3141 3143 3145 3147 3150 3153 3156 3157 3159 3160 3162 3164 3167 3168 3170 3172 3173 3174 3176 3178 3181 3182 3184 3185 3187 3189 3191 3192 3193 3195 3198 3199 3201 3202 3203 3204 3205 3205 3206 3207 3208 3209 3210 3212 3213 3214 3215 3216 3216 3217 3217 3217 3217 3217 3216 3216 3216 3216 3217 3218 3219 3219 3219 3219 3220 3221 3221 3221 3221 3220 3220 3219 3218 3217 3216 3215 3214 3212 3211 3209 3207 3205
3132 3134 3136 3138 3140 3142 3144 3147 3149 3152 3154 3156 3158 3160 3162 3164 3166 3168 3169 3171 3172 3173 3175 3178 3179 3181 3182 3184 3186 3188 3189 3190 3192 3194 3196 3197 3199 3200 3201 3201 3202 3203 3205 3206 3207 3208 3209 3210 3211 3212 3213 3214 3214 3214 3215 3215 3214 3214 3214 3213 3213 3214 3215 3216 3216 3216 3216 3217 3218 3218 3218 3219 3218 3217 3217 3216 3215 3213 3212 3211 3210 3209 3207 3205 3203
3130 3132 3134 3135 3137 3139 3141 3143 3145 3148 3151 3153 3156 3158 3159 3161 3163 3165 3167 3168 3169 3170 3172 3174 3176 3177 3179 3180 3182 3184 3186 3187 3188 3190 3192 3194 3195 3196 3197 3198 3199 3201 3202 3203 3204 3205 3206 3207 3209 3210 3210 3211 3211 3211 3212 3212 3212 3212 3211 3211 3211 3212 3213 3213 3213 3213 3213 3214 3215 3216 3216 3216 3216 3215 3214 3214 3213 3211 3210 3209 3208 3206 3205 3203 3200
3126 3128 3130 3132 3134 3136 3138 3140 3142 3144 3147 3149 3152 3155 3157 3158 3160 3162 3164 3165 3167 3167 3168 3170 3172 3174 3176 3177 3178 3180 3182 3183 3185 3187 3188 3190 3192 3193 3194 3195 3197 3198 3199 3200 3201 3202 3203 3205 3206 3207 3208 3208 3208 3209 3209 3209 3209 3209 3209 3209 3209 3210 3210 3210 3210 3210 3211 3211 3212 3213 3213 3213 3213 3212 3211 3210 3210 3209 3208 3206 3205 3203 3201 3199 3197
3122 3124 3127 3128 3130 3132 3134 3136 3139 3141 3143 3145 3148 3151 3153 3155 3157 3159 3161 3162 3164 3165 3166 3167 3169 3170 3172 3174 3175 3176 3178 3180 3182 3184 3185 3187 3189 3190 3191 3193 3195 3195 3195 3196 3197 3199 3200 3202 3203 3204 3205 3205 3205 3206 3206 3206 3206 3206 3206 3206 3207 3207 3208 3208 3208 3208 3208 3209 3209 3210 3210 3210 3209 3209 3209 3208 3207 3206 3204 3203 3201 3200 3198 3196 3194
3118 3121 3123 3125 3127 3129 3131 3133 3135 3137 3139 3141 3144 3147 3150 3152 3154 3156 3158 3159 3160 3162 3163 3164 3165 3167 3169 3170 3172 3173 3175 3176 3178 3181 3182 3184 3186 3187 3188 3190 3191 3192 3192 3192 3194 3196 3197 3198 3199 3200 3201 3202 3202 3203 3203 3203 3203 3203 3203 3204 3204 3204 3205 3205 3205 3205 3205 3206 3207 3207 3207 3207 3207 3206 3205 3205 3204 3203 3201 3200 3198 3197 3195 3193 3191
3114 3116 3118 3121 3123 3125 3127 3129 3131 3133 3135 3137 3140 3143 3146 3148 3150 3152 3154 3156 3157 3158 3160 3161 3162 3164 3165 3167 3169 3171 3172 3173 3175 3178 3180 3181 3183 3184 3186 3187 3188 3188 3189 3189 3191 3192 3193 3194 3196 3197 3198 3199 3199 3199 3200 3200 3200 3201 3200 3200 3201 3201 3202 3202 3202 3202 3202 3203 3203 3204 3204 3204 3203 3202 3202 3201 3200 3199 3198 3197 3195 3193 3192 3190 3188
3109 3111 3114 3116 3119 3121 3123 3125 3127 3129 3131 3133 3136 3139 3142 3144 3146 3148 3150 3152 3153 3154 3156 3158 3159 3161 3162 3164 3166 3168 3170 3170 3172 3175 3177 3179 3180 3181 3183 3184 3185 3185 3186 3187 3187 3188 3189 3191 3192 3193 3194 3195 3196 3196 3197 3197 3198 3197 3197 3197 3197 3198 3198 3199 3199 3199 3199 3200 3200 3200 3200 3200 3199 3198 3199 3198 3196 3195 3194 3193 3191 3189 3188 3186 3184
3103 3106 3109 3112 3114 3116 3118 3120 3123 3125 3127 3130 3132 3135 3138 3141 3143 3144 3146 3148 3149 3151 3153 3155 3156 3158 3159 3161 3163 3165 3167 3168 3169 3171 3173 3175 3177 3178 3180 3181 3182 3182 3183 3184 3184 3185 3186 3187 3189 3190 3191 3192 3192 3193 3193 3194 3194 3194 3194 3194 3194 3194 3195 3195 3195 3196 3196 3196 3197 3197 3196 3196 3195 3195 3195 3194 3192 3191 3191 3189 3187 3186 3184 3183 3181
3098 3101 3103 3107 3109 3112 3114 3116 3118 3121 3123 3126 3128 3131 3134 3137 3139 3140 3142 3144 3145 3147 3149 3151 3153 3155 3157 3159 3160 3162 3164 3165 3165 3167 3170 3172 3174 3176 3177 3178 3179 3180 3180 3181 3182 3183 3183 3184 3185 3186 3187 3187 3188 3189 3189 3189 3190 3190 3190 3190 3190 3191 3191 3191 3192 3192 3192 3192 3193 3193 3192 3191 3191 3191 3190 3189 3188 3187 3186 3185 3183 3182 3181 3179 3178
3092 3096 3099 3102 3104 3106 3109 3112 3114 3117 3119 3121 3124 3127 3130 3133 3134 3136 3138 3140 3142 3144 3146 3148 3150 3152 3154 3156 3157 3159 3161 3162 3163 3164 3167 3170 3172 3173 3175 3176 3176 3177 3178 3178 3179 3179 3179 3180 3181 3181 3182 3183 3184 3184 3185 3185 3186 3186 3186 3187 3187 3187 3187 3187 3187 3188 3188 3188 3188 3188 3187 3187 3187 3187 3186 3185 3184 3184 3183 3182 3180 3178 3177 3176 3175
3087 3090 3094 3097 3099 3101 3104 3107 3110 3112 3115 3117 3120 3124 3127 3129 3131 3133 3135 3137 3139 3141 3143 3145 3147 3149 3151 3153 3155 3156 3158 3160 3161 3162 3165 3167 3169 3170 3171 3172 3173 3173 3174 3175 3175 3174 3175 3176 3177 3178 3179 3179 3179 3180 3181 3181 3182 3182 3183 3183 3183 3183 3183 3183 3183 3184 3184 3184 3184 3184 3183 3183 3182 3182 3181 3181 3180 3180 3179 3178 3176 3175 3173 3172 3171
3082 3085 3089 3091 3094 3096 3099 3102 3105 3108 3111 3113 3116 3120 3123 3125 3127 3129 3132 3134 3136 3138 3140 3142 3144 3147 3148 3150 3152 3154 3156 3158 3159 3160 3161 3163 3165 3166 3167 3168 3169 3169 3170 3171 3171 3170 3171 3172 3173 3175 3175 3175 3176 3176 3177 3177 3178 3178 3179 3179 3180 3180 3180 3179 3179 3180 3180 3180 3180 3180 3179 3179 3178 3177 3177 3176 3175 3175 3175 3173 3172 3171 3170 3169 3168
3077 3080 3083 3086 3089 3092 3095 3098 3101 3104 3106 3109 3113 3116 3119 3121 3124 3126 3128 3130 3133 3135 3137 3140 3142 3144 3146 3147 3149 3151 3153 3155 3156 3157 3158 3159 3160 3162 3163 3164 3164 3165 3166 3167 3167 3167 3168 3168 3169 3171 3172 3172 3172 3173 3173 3174 3174 3174 3175 3176 3176 3177 3176 3175 3175 3177 3177 3176 3176 3176 3175 3174 3174 3173 3172 3171 3171 3171 3171 3170 3169 3168 3167 3165 3164
3073 3076 3078 3081 3083 3087 3090 3093 3096 3099 3102 3105 3109 3112 3115 3117 3120 3122 3125 3127 3130 3132 3135 3137 3139 3141 3143 3144 3146 3148 3149 3151 3152 3153 3154 3155 3156 3158 3159 3160 3160 3160 3162 3163 3163 3164 3164 3165 3166 3167 3168 3169 3169 3169 3170 3170 3169 3169 3171 3171 3172 3173 3173 3171 3172 3173 3173 3172 3172 3172 3172 3171 3170 3168 3167 3167 3166 3166 3167 3166 3166 3165 3164 3163 3162
3070 3071 3073 3076 3078 3081 3084 3087 3090 3094 3097 3100 3104 3108 3111 3113 3116 3119 3121 3124 3127 3129 3132 3134 3135 3137 3139 3141 3142 3143 3145 3146 3148 3149 3150 3151 3152 3153 3154 3155 3156 3156 3157 3158 3159 3160 3160 3161 3162 3163 3163 3164 3165 3165 3165 3166 3166 3165 3166 3167 3168 3169 3168 3168 3169 3169 3168 3168 3168 3168 3167 3166 3164 3162 3161 3163 3163 3163 3164 3164 3163 3162 3161 3160 3159
3066 3066 3068 3070 3072 3074 3078 3081 3084 3088 3092 3096 3100 3103 3106 3109 3113 3115 3118 3121 3123 3126 3129 3130 3132 3133 3135 3137 3138 3140 3141 3142 3144 3145 3146 3147 3148 3149 3150 3151 3152 3152 3153 3154 3155 3156 3156 3157 3158 3158 3158 3159 3160 3160 3161 3161 3162 3161 3162 3163 3163 3163 3163 3164 3164 3164 3163 3162 3162 3162 3161 3160 3160 3160 3161 3162 3162 3162 3162 3161 3161 3159 3158 3158 3157
3058 3059 3062 3065 3067 3069 3071 3074 3078 3083 3087 3091 3094 3098 3102 3105 3109 3112 3114 3117 3120 3123 3125 3127 3128 3129 3131 3132 3134 3136 3137 3138 3140 3141 3143 3144 3144 3145 3146 3147 3148 3149 3150 3151 3152 3152 3152 3153 3154 3154 3154 3154 3155 3156 3156 3156 3157 3157 3157 3158 3158 3158 3159 3160 3160 3159 3158 3157 3157 3158 3157 3155 3157 3160 3161 3160 3160 3159 3158 3158 3157 3156 3155 3155 3154
3054 3055 3057 3059 3062 3064 3066 3069 3073 3077 3081 3085 3089 3093 3097 3100 3104 3108 3111 3113 3116 3118 3120 3122 3124 3125 3126 3128 3130 3131 3133 3135 3136 3138 3139 3140 3141 3141 3142 3143 3144 3145 3146 3148 3148 3149 3149 3149 3149 3150 3150 3150 3151 3151 3152 3152 3152 3153 3153 3154 3154 3154 3154 3154 3154 3154 3153 3153 3154 3154 3153 3152 3153 3156 3156 3155 3154 3154 3153 3153 3153 3152 3151 3151 3151
3056 3058 3058 3058 3059 3060 3062 3064 3067 3071 3075 3079 3083 3087 3091 3095 3099 3103 3106 3109 3111 3113 3116 3118 3119 3121 3122 3124 3126 3127 3129 3131 3132 3134 3135 3136 3137 3138 3139 3140 3141 3141 3142 3143 3144 3144 3144 3145 3146 3147 3147 3147 3147 3147 3148 3147 3147 3148 3149 3149 3149 3148 3149 3150 3151 3150 3150 3151 3151 3151 3150 3149 3150 3151 3150 3149 3149 3148 3148 3148 3148 3148 3147 3147 3147
3052 3056 3058 3059 3060 3059 3059 3060 3062 3066 3070 3074 3078 3083 3087 3090 3094 3098 3101 3104 3107 3109 3112 3114 3116 3117 3119 3121 3122 3124 3126 3127 3128 3130 3131 3133 3134 3134 3135 3136 3137 3137 3138 3138 3139 3140 3140 3141 3142 3143 3143 3144 3144 3144 3144 3144 3144 3144 3145 3145 3144 3143 3144 3145 3147 3147 3147 3146 3146 3146 3144 3144 3144 3145 3146 3145 3144 3143 3144 3143 3143 3144 3143 3143 3144
3049 3052 3056 3059 3060 3059 3058 3057 3057 3060 3065 3070 3075 3079 3083 3086 3089 3092 3096 3100 3102 3105 3108 3110 3112 3113 3116 3118 3119 3121 3122 3123 3125 3126 3128 3129 3130 3131 3131 3132 3133 3134 3134 3134 3135 3136 3136 3137 3138 3138 3139 3140 3140 3141 3140 3140 3139 3140 3141 3141 3139 3138 3138 3140 3142 3143 3143 3142 3142 3142 3141 3140 3141 3141 3141 3141 3140 3141 3140 3140 3139 3140 3140 3139 3140
3046 3048 3051 3054 3056 3056 3055 3055 3055 3057 3062 3068 3072 3075 3079 3082 3085 3088 3092 3095 3099 3102 3104 3106 3108 3111 3113 3115 3116 3117 3118 3120 3121 3122 3124 3125 3126 3126 3127 3128 3129 3130 3130 3131 3131 3132 3133 3134 3134 3134 3134 3135 3135 3136 3136 3134 3133 3133 3135 3136 3136 3134 3135 3138 3140 3140 3138 3138 3139 3140 3139 3138 3138 3138 3137 3137 3138 3138 3137 3137 3136 3136 3136 3136 3135
3041 3042 3045 3049 3052 3053 3054 3055 3055 3055 3059 3063 3068 3072 3076 3079 3081 3084 3088 3091 3094 3098 3101 3103 3106 3109 3111 3112 3112 3113 3114 3116 3117 3119 3120 3121 3121 3122 3123 3124 3125 3126 3126 3127 3127 3127 3128 3130 3130 3130 3130 3131 3131 3131 3131 3130 3130 3129 3129 3130 3130 3129 3131 3136 3138 3135 3132 3132 3133 3134 3134 3133 3134 3134 3133 3133 3134 3133 3133 3133 3133 3132 3132 3131 3131
3037 3039 3042 3046 3051 3054 3056 3056 3056 3055 3057 3062 3066 3069 3072 3075 3077 3080 3084 3087 3091 3095 3098 3101 3104 3106 3106 3106 3107 3108 3110 3112 3113 3114 3115 3116 3117 3118 3119 3120 3121 3122 3122 3123 3123 3123 3124 3125 3126 3126 3126 3127 3127 3128 3127 3126 3126 3126 3126 3125 3125 3123 3125 3129 3131 3129 3127 3128 3128 3128 3128 3128 3129 3129 3129 3128 3128 3128 3129 3129 3129 3129 3128 3127 3126
3035 3038 3040 3043 3048 3052 3054 3055 3054 3055 3057 3061 3064 3067 3070 3072 3075 3078 3082 3086 3089 3093 3095 3097 3098 3099 3100 3101 3102 3104 3107 3108 3109 3110 3111 3112 3113 3114 3115 3116 3117 3117 3118 3118 3119 3119 3119 3120 3121 3121 3122 3122 3123 3124 3123 3122 3122 3122 3121 3121 3120 3118 3119 3122 3123 3123 3124 3125 3125 3124 3123 3123 3123 3124 3123 3123 3123 3123 3124 3124 3125 3124 3124 3123 3122
3033 3036 3037 3040 3044 3047 3050 3052 3052 3053 3055 3058 3062 3065 3068 3071 3074 3077 3081 3084 3086 3088 3090 3091 3092 3093 3095 3096 3098 3100 3102 3104 3104 3105 3106 3107 3108 3110 3111 3111 3112 3113 3114 3114 3114 3114 3115 3115 3116 3116 3117 3118 3119 3119 3120 3119 3118 3118 3117 3116 3114 3114 3115 3117 3118 3118 3119 3119 3119 3119 3118 3118 3118 3119 3118 3118 3118 3119 3120 3120 3120 3120 3119 3119 3119
3031 3032 3034 3037 3040 3042 3046 3049 3050 3051 3053 3057 3060 3063 3066 3069 3072 3075 3078 3080 3081 3083 3084 3085 3087 3089 3090 3091 3093 3095 3097 3098 3099 3101 3102 3103 3104 3105 3106 3107 3108 3109 3109 3109 3109 3109 3110 3111 3112 3112 3113 3114 3114 3115 3115 3115 3114 3113 3113 3111 3110 3110 3111 3112 3112 3112 3113 3114 3114 3114 3114 3114 3115 3115 3114 3114 3115 3116 3116 3115 3115 3115 3115 3115 3115
3029 3029 3031 3033 3034 3036 3039 3043 3046 3048 3051 3054 3057 3060 3063 3066 3068 3071 3073 3075 3077 3078 3079 3081 3082 3084 3086 3087 3088 3090 3092 3093 3095 3096 3098 3099 3100 3100 3101 3102 3103 3104 3104 3105 3105 3105 3105 3106 3107 3108 3108 3108 3109 3109 3110 3109 3109 3109 3109 3108 3106 3106 3107 3107 3107 3108 3108 3109 3109 3110 3111 3111 3111 3111 3110 3110 3111 3112 3112 3112 3111 3110 3110 3110 3110
3026 3028 3029 3030 3031 3031 3033 3037 3041 3045 3048 3051 3054 3057 3060 3062 3064 3066 3068 3070 3072 3074 3075 3076 3078 3080 3081 3082 3084 3086 3087 3089 3090 3092 3093 3094 3095 3096 3097 3098 3098 3099 3099 3100 3100 3100 3101 3102 3103 3103 3103 3103 3103 3103 3103 3104 3104 3104 3104 3104 3104 3104 3104 3103 3104 3104 3105 3105 3106 3106 3107 3107 3107 3106 3107 3107 3108 3109 3109 3108 3108 3107 3106 3106 3105
3025 3027 3028 3030 3030 3031 3033 3036 3040 3043 3046 3049 3052 3054 3056 3058 3061 3062 3064 3066 3068 3069 3071 3072 3074 3076 3077 3079 3080 3082 3083 3085 3087 3088 3089 3090 3091 3092 3093 3093 3093 3094 3094 3095 3095 3095 3096 3097 3098 3098 3098 3099 3099 3099 3099 3099 3099 3099 3100 3100 3100 3101 3101 3101 3101 3101 3101 3102 3102 3102 3103 3104 3104 3104 3104 3104 3105 3105 3105 3104 3104 3103 3102 3102 3101
3027 3027 3028 3029 3030 3031 3034 3037 3039 3041 3044 3047 3049 3052 3053 3055 3057 3059 3061 3063 3064 3066 3067 3069 3070 3072 3074 3075 3077 3078 3080 3082 3083 3085 3085 3086 3087 3088 3088 3089 3089 3089 3090 3090 3091 3091 3092 3093 3093 3094 3094 3095 3095 3095 3095 3095 3095 3095 3095 3096 3096 3096 3097 3097 3098 3098 3098 3098 3098 3099 3100 3101 3100 3100 3100 3100 3100 3099 3099 3099 3098 3098 3097 3096 3095
3029 3029 3029 3029 3029 3031 3034 3037 3039 3041 3043 3045 3047 3049 3051 3053 3055 3057 3058 3060 3062 3064 3065 3066 3068 3069 3071 3072 3074 3076 3077 3079 3080 3081 3081 3082 3082 3083 3084 3084 3085 3085 3086 3086 3087 3087 3088 3088 3089 3090 3090 3091 3091 3091 3091 3091 3091 3091 3092 3092 3093 3093 3094 3094 3094 3094 3095 3095 3095 3096 3096 3096 3096 3095 3095 3095 3094 3094 3093 3093 3092 3092 3091 3091 3090
3030 3030 3029 3029 3030 3031 3033 3036 3038 3040 3042 3043 3045 3047 3048 3050 3053 3055 3056 3057 3060 3062 3063 3064 3065 3067 3068 3069 3070 3071 3073 3074 3075 3076 3077 3077 3078 3079 3080 3080 3081 3082 3082 3083 3083 3084 3084 3085 3085 3086 3086 3087 3087 3087 3088 3088 3088 3088 3089 3089 3089 3090 3090 3090 3091 3091 3091 3091 3091 3091 3091 3091 3091 3090 3090 3090 3089 3088 3088 3087 3087 3086 3085 3085 3084